Regional Weather Roundup
Issued by NWS

Home | Current Version | Previous Version | Text Only | Print | Product List | Glossary Off
Versions: 1 2 3 4 5 6 7 8 9 10 11 12 13 14 15 16 17 18 19 20 21 22 23 24 25 26 27 28 29 30 31 32 33 34 35 36 37 38 39 40 41 42 43 44 45 46 47 48 49 50

000
ASUS43 KLMK 191802
RWRKY
KENTUCKY REGIONAL WEATHER ROUNDUP
NATIONAL WEATHER SERVICE LOUISVILLE KY
100 PM EST FRI DEC 19 2014

NOTE "FAIR" INDICATES FEW OR NO CLOUDS BELOW 12,000 FEET
WITH NO SIGNIFICANT WEATHER AND/OR OBSTRUCTIONS TO VISIBILITY.

KYZ001>023-026-027-061>063-070>075-191900-
WESTERN AND SOUTH CENTRAL KENTUCKY

CITY           SKY/WX    TMP DP  RH WIND       PRES   REMARKS
PADUCAH        CLOUDY    39  29  67 NE6       30.27F WCI  35
HENDERSON      PTSUNNY   36  25  64 N3        30.29F
OWENSBORO      PTSUNNY   36  26  67 N7        30.28F WCI  30
HOPKINSVILLE   CLOUDY    37  28  71 NE2       30.26F
BOWLING GREEN  PTSUNNY   37  27  67 E3        30.27F
GLASGOW        NOT AVBL
$$

KYZ024-025-028>034-038-045-046-053-191900-
NORTH CENTRAL KENTUCKY

CITY           SKY/WX    TMP DP  RH WIND       PRES   REMARKS
LOUISVILLE/SDF CLOUDY    35  23  61 VRB3      30.28F
LOUISVILLE/LOU PTSUNNY   35  24  64 NW5       30.28F WCI  31
FORT KNOX      PTSUNNY   34  23  65 CALM      30.25F
$$

KYZ035>037-039>044-047>052-055>060-089>105-191900-
NORTHEAST KENTUCKY

CITY           SKY/WX    TMP DP  RH WIND       PRES   REMARKS
LEXINGTON      PTSUNNY   32  23  69 N8        30.25F WCI  25
COVINGTON      CLOUDY    30  19  63 CALM      30.26F
FRANKFORT      PTSUNNY   30  21  69 N5        30.25F WCI  25
$$

KYZ054-064>069-076>088-106>120-191900-
SOUTHEAST KENTUCKY

CITY           SKY/WX    TMP DP  RH WIND       PRES   REMARKS
JACKSON        PTSUNNY   35  23  61 W5        30.21F WCI  31
LONDON         CLOUDY    38  25  59 CALM      30.22F
SOMERSET       NOT AVBL
MIDDLESBORO    NOT AVBL
MONTICELLO     CLOUDY    38  26  62 CALM      30.27F
$$




USA.gov is the U.S. government's official web portal to all federal, state and local government web resources and services.